SCP
0 0 0 0 0 0 0 0 0 0 0 0 0 0 0 0 0 0 0 0 0 0 0 0 0 0 0 0 0 0 0 0 0 0 -0 -0 -0 -0 -0 0 0 0 0 0 0 0 0 0 0
0 0 0 0 0 0 0 0 0 0 0 0 0 0 0 0 0 0 0 0 0 0 0 0 0 0 0 0 0 0 0 0 0 0 0 0 -0 -0 -0 0 0 0 0 0 0 0 0 0 0
0 0 0 0 0 0 0 0 0 0 0 0 0 0 0 0 0 0 0 0 0 0 0 0 0 0 0 0 0 0 0 0 0 0 0 0 0 0 0 0 0 0 0 0 0 0 0 0 0
0 0 0 0 0 0 0 0 0 0 0 0 0 0 0 0 0 0 0 0 0 0 0 0 0 0 0 0 0 0 0 0 0 0 0 0 0 0 0 0 0 0 0 0 0 0 0 0 0
0 0 0 0 0 0 0 0 0 0 0 0 0 0 0 0 0 0 0 0 0 0 0 0 0 0 0 0 0 0 0 0 0 0 0 0 0 0 0 0 0 0 0 0 0 0 0 0 0
0 0 0 0 0 0 0 0 0 0 0 0 0 0 0 0 0 0 0 0 0 0 0 0 0 1 1 1 1 0 0 0 0 0 0 0 0 0 0 0 0 0 0 0 0 0 0 0 0
0 0 0 0 0 0 0 0 0 0 0 0 0 0 0 0 0 0 0 0 0 0 0 0 0 1 1 1 1 1 1 1 1 0 0 0 0 0 0 0 0 0 0 0 0 0 0 0 0
0 0 0 0 0 0 0 0 0 0 0 0 0 0 0 0 0 0 0 0 0 0 0 0 0 1 1 1 1 1 1 1 1 1 0 0 0 0 0 0 0 0 0 0 1 1 1 1 1
0 0 0 0 0 0 0 0 0 0 0 0 0 0 0 0 0 0 0 0 0 0 0 0 0 0 1 1 1 1 1 1 1 1 0 0 0 0 0 0 0 0 0 0 0 1 1 1 1
0 0 0 0 0 0 0 0 0 0 0 0 0 0 0 0 0 0 0 0 0 0 0 0 0 0 0 1 1 1 1 1 1 1 1 0 0 0 0 0 0 0 0 0 0 0 1 1 1
0 0 0 0 0 0 0 0 0 0 0 0 0 0 0 0 0 0 0 0 0 0 0 0 0 0 0 0 1 1 1 1 1 1 1 1 1 1 1 1 1 0 0 0 0 0 1 1 1
0 0 0 0 0 0 0 0 0 0 0 0 0 0 0 0 0 0 0 0 0 0 0 0 0 0 0 0 1 1 1 1 1 1 1 1 1 1 1 1 1 0 0 0 0 0 0 1 1
0 0 0 0 0 0 0 0 0 0 0 0 0 0 0 0 0 0 0 0 0 0 0 0 0 0 0 0 0 0 1 1 1 1 1 1 1 1 1 1 0 0 0 0 0 0 1 1 2
0 0 0 0 0 0 0 0 0 0 0 0 0 0 0 0 0 0 0 0 0 0 0 0 0 0 0 0 0 0 0 0 1 1 1 0 0 1 1 1 0 0 0 1 1 1 1 2 3
0 0 0 0 0 0 0 0 0 0 0 0 0 0 0 0 0 0 0 0 0 0 0 0 0 0 0 0 0 0 0 0 0 0 0 0 0 0 0 0 0 0 1 1 1 1 2 3 3
0 0 0 0 0 0 0 0 0 0 0 0 0 0 0 0 0 0 0 0 0 0 0 0 0 0 0 0 0 0 0 0 0 0 0 0 0 0 0 0 0 0 1 1 1 2 2 2 3
0 0 0 0 0 0 0 0 0 0 0 0 0 0 0 0 0 0 0 0 0 0 0 0 0 0 0 0 0 0 0 0 0 0 0 0 0 0 0 0 0 0 1 1 1 1 2 2 2
0 0 0 0 0 0 0 0 0 0 0 0 0 0 0 0 0 0 0 0 0 0 0 0 0 0 0 0 0 0 0 0 0 0 0 0 0 0 0 0 0 0 0 1 1 1 1 2 2
0 0 0 0 0 0 0 0 0 0 0 0 0 0 0 0 0 0 0 0 0 0 0 0 0 0 0 0 0 0 0 0 0 0 0 0 0 0 0 0 0 0 0 0 0 1 1 1 1
0 0 0 0 0 0 0 0 0 0 0 0 0 0 0 0 0 0 0 0 0 0 0 0 0 0 0 0 0 0 0 0 0 0 0 0 0 0 0 0 0 0 0 0 0 0 0 0 0
0 0 0 0 0 0 0 0 0 0 0 0 0 0 0 0 0 0 0 0 0 0 0 0 0 0 0 0 0 0 0 0 0 0 0 0 0 0 0 0 0 0 0 0 0 0 0 0 0
0 0 0 0 0 0 0 0 0 0 0 0 0 0 0 0 0 0 0 0 0 0 0 0 0 0 0 0 0 0 0 0 0 0 0 0 0 0 0 0 0 0 0 0 0 0 0 0 0
0 0 0 0 0 0 0 0 0 0 0 0 0 0 0 0 0 0 0 0 0 0 0 0 0 0 0 0 0 0 0 0 0 0 0 0 0 0 0 0 0 0 0 0 0 0 0 0 0
0 0 0 0 0 0 0 0 0 0 0 0 0 0 0 0 0 0 0 0 0 0 0 0 0 0 0 0 0 0 0 0 0 0 0 0 0 0 0 0 0 0 0 0 0 0 0 0 0
0 0 0 0 0 0 0 0 0 0 0 0 0 0 0 0 0 0 0 0 0 0 0 0 0 0 0 0 0 0 0 0 0 0 0 0 0 0 0 0 0 0 0 0 0 0 0 0 0
0 0 0 0 0 0 0 0 0 0 0 0 0 0 0 0 0 0 0 0 0 0 0 0 0 0 0 0 0 0 0 0 0 0 0 0 0 0 0 0 0 0 0 0 0 0 0 0 0
0 0 0 0 0 0 0 0 0 0 0 0 0 0 0 0 0 0 0 0 0 0 0 0 0 0 0 0 0 0 0 0 0 0 0 0 0 0 0 0 0 0 0 0 0 0 0 0 0
0 0 0 0 0 0 0 0 0 0 0 0 0 0 0 0 0 0 0 0 0 0 0 0 0 0 0 0 0 0 0 0 0 0 0 0 0 0 0 0 0 0 0 0 0 0 0 0 0
0 0 0 0 0 0 0 0 0 0 0 0 0 0 0 0 0 0 0 0 0 0 0 0 0 0 0 0 0 0 0 0 0 0 0 0 0 0 0 0 0 0 0 0 0 0 0 0 0
0 0 0 0 0 0 0 0 0 0 0 0 0 0 0 0 0 0 0 0 0 0 0 0 0 0 0 0 0 0 0 0 0 0 0 0 0 0 0 0 0 0 0 0 0 0 0 0 0
Wind_Speed
2 2 4 4 5 5 4 3 2 2 2 1 2 2 3 3 3 3 4 4 2 1 7 11 12 12 12 11 11 11 10 9 8 8 7 6 6 6 6 6 7 7 7 7 7 7 8 8 8
1 2 4 4 5 5 5 2 2 1 3 2 1 2 2 2 2 2 2 3 3 3 7 8 13 13 13 13 12 12 10 9 9 8 7 5 5 7 7 6 6 6 7 6 6 6 7 8 8
1 2 4 4 4 2 3 2 2 3 4 3 2 1 2 1 2 1 2 5 4 5 7 7 10 13 13 13 13 12 11 11 10 8 7 6 5 6 5 5 5 5 5 5 5 6 7 8 8
2 2 3 5 4 2 3 3 6 6 2 2 3 2 2 1 1 2 6 5 5 5 6 7 10 11 12 12 11 11 11 11 9 9 9 7 5 4 3 3 2 3 5 5 5 6 7 8 9
2 3 4 5 4 4 5 7 6 6 2 1 3 4 3 4 1 3 5 4 4 4 4 5 8 10 10 11 11 11 11 10 9 7 8 7 7 7 5 3 1 2 4 6 6 7 7 8 9
2 3 5 5 5 5 5 3 6 7 4 2 4 5 2 5 3 1 4 3 2 3 3 4 7 8 10 11 11 11 11 10 9 8 7 7 7 8 6 5 4 3 3 4 6 7 8 8 9
3 3 4 5 6 5 2 3 5 6 6 3 2 5 2 5 4 2 2 3 4 2 2 4 6 9 10 10 10 11 10 10 9 9 8 7 6 7 6 4 5 4 3 4 6 7 7 8 9
1 3 4 4 5 3 3 4 3 6 5 2 3 6 3 4 4 3 1 1 2 2 1 3 6 7 8 9 10 9 8 9 9 9 7 5 4 6 3 5 2 2 3 4 6 7 7 7 7
3 5 5 3 4 3 3 6 5 3 6 4 5 7 4 2 3 5 5 5 3 1 0 2 5 6 7 8 7 9 9 8 8 9 8 6 8 9 7 7 1 4 4 5 6 7 7 6 7
4 5 4 2 3 6 8 9 10 7 9 10 10 9 5 5 6 8 8 7 4 2 2 3 4 5 6 5 6 7 7 7 8 7 8 8 7 6 6 3 4 7 6 7 8 7 7 8 7
5 6 3 5 6 7 9 11 8 9 13 13 14 13 4 7 8 9 8 6 3 3 2 3 4 4 5 4 4 4 4 4 6 6 6 6 6 5 5 5 5 8 8 9 8 9 9 8 6
6 7 8 7 5 7 11 11 11 12 14 14 13 11 9 9 10 10 8 5 3 2 1 2 2 0 3 4 4 4 4 4 4 5 6 5 4 5 4 4 5 5 5 6 7 6 9 9 9
8 7 7 8 10 11 11 13 12 13 12 10 9 8 10 10 9 8 7 5 5 4 2 1 1 2 3 3 3 4 4 5 5 4 5 6 5 5 4 4 4 5 4 5 6 7 9 9 8
4 7 10 11 10 5 7 8 6 7 5 8 8 10 10 9 9 8 8 8 7 6 3 2 2 3 4 3 3 2 3 3 4 5 6 7 6 5 4 5 4 4 5 5 6 7 7 7 4
5 8 9 3 2 1 7 9 4 7 9 13 14 13 11 10 8 9 9 9 8 6 4 4 2 2 4 4 3 2 2 3 4 4 6 7 7 6 6 5 5 5 5 6 5 5 4 3 4
5 6 4 2 3 3 8 10 8 13 15 15 14 13 12 11 9 8 9 9 8 7 7 6 5 6 5 4 4 2 2 3 3 4 5 7 7 7 6 5 5 6 6 5 5 5 5 5 5
4 5 6 5 2 5 7 11 14 17 12 13 15 16 16 18 18 13 8 9 9 9 9 8 7 7 6 5 4 4 3 3 3 3 4 5 6 7 6 5 5 6 6 6 6 6 6 6 6
6 7 7 9 5 7 9 12 14 15 14 16 17 19 19 21 22 19 14 9 9 10 10 9 8 8 6 5 4 4 4 4 3 3 3 5 5 5 4 3 4 4 4 4 4 5 4 4 5
6 8 12 9 5 8 11 13 9 11 16 18 18 19 20 20 21 21 19 14 9 10 11 11 10 9 7 5 6 5 5 4 4 2 3 4 4 4 4 3 2 2 2 3 4 4 4 2 2
8 11 10 6 4 9 10 8 8 12 16 16 18 19 20 21 23 23 22 19 13 12 12 12 12 11 10 7 6 4 5 4 3 3 2 2 3 3 2 4 3 3 2 3 4 5 4 3 3
8 8 10 14 15 5 7 5 13 11 15 16 18 18 21 22 23 23 23 23 19 14 12 11 12 11 10 8 5 4 4 4 5 5 4 3 4 4 4 4 4 4 4 3 4 4 5 4 3
6 5 11 15 13 6 3 5 11 7 11 17 19 19 20 21 21 21 23 25 24 19 13 12 12 11 10 9 8 9 8 8 8 6 4 5 4 4 4 4 4 4 4 5 4 4 3 4 3
7 11 13 11 9 8 5 8 6 7 9 16 18 19 19 19 20 21 22 22 22 20 16 12 12 12 10 10 10 10 9 8 6 6 6 5 5 4 4 3 3 4 4 5 5 4 5 4 4
9 13 8 4 5 6 3 6 3 7 10 15 17 18 18 18 18 19 19 20 20 21 18 15 13 13 12 11 10 10 10 9 8 8 7 6 4 4 4 3 3 4 4 4 4 5 6 5 5
10 11 7 5 4 3 1 8 0 8 9 12 14 15 15 16 17 19 20 21 22 22 21 19 17 15 13 12 11 11 10 10 10 9 8 7 5 5 4 2 3 4 4 4 4 5 6 7 8
7 6 6 8 9 10 7 8 6 7 5 9 10 13 15 18 19 20 20 20 20 21 21 20 20 18 16 14 13 12 11 8 8 8 7 6 4 2 1 1 3 4 4 4 5 5 6 6 7
4 3 2 7 11 11 8 3 7 3 7 12 17 20 22 22 21 21 21 21 21 21 21 21 20 20 18 16 15 13 12 10 8 7 5 4 3 2 0 2 3 4 5 5 5 5 6 6 7
3 2 4 5 8 11 13 11 3 4 14 22 24 22 21 21 20 21 21 22 21 20 20 20 20 20 19 17 14 11 11 9 7 6 5 5 4 3 1 3 5 6 6 7 6 6 6 7 7
4 2 3 5 7 9 13 9 8 7 16 24 24 23 23 22 21 21 22 21 20 20 19 19 20 21 20 17 14 12 11 9 7 6 6 4 3 3 2 3 5 6 7 7 7 8 8 8 8
2 1 3 7 10 10 13 13 6 11 22 25 25 24 24 23 23 24 25 24 21 19 17 18 18 18 19 17 11 9 9 8 6 5 5 5 3 2 2 2 4 5 6 6 7 8 7 7 6
Wind_Direction
122 224 247 248 231 224 187 145 224 198 224 329 332 295 312 340 328 28 74 40 327 150 167 173 189 191 194 199 202 206 211 211 218 222 234 237 226 229 231 227 227 226 224 227 231 227 221 212 202
330 271 255 254 245 206 158 165 216 267 4 350 196 230 214 116 55 64 144 12 296 179 176 186 173 192 197 200 204 210 209 218 230 228 222 244 246 246 236 215 224 236 242 240 239 231 225 213 200
197 288 278 258 249 245 108 89 17 326 301 255 218 232 288 138 146 163 21 336 266 191 190 182 178 197 202 204 206 210 211 222 227 226 217 237 262 253 227 217 223 237 250 242 236 229 225 214 202
242 236 253 263 260 308 316 356 337 310 186 223 263 218 197 154 310 3 345 311 242 197 193 183 195 205 208 211 212 214 219 224 224 233 210 216 251 271 246 233 242 261 261 250 239 233 230 218 205
241 267 257 256 274 295 293 308 303 289 264 182 268 274 236 152 186 334 345 318 249 211 201 187 194 212 212 215 217 219 223 224 227 240 203 210 236 255 253 213 196 287 267 253 250 249 243 227 210
199 256 259 264 275 290 285 285 292 278 274 241 253 270 254 137 169 49 9 3 316 264 226 201 187 217 215 214 217 220 224 221 223 242 237 229 241 254 248 217 218 247 280 270 260 258 252 239 219
221 246 272 285 288 283 334 341 301 310 291 296 283 272 241 163 141 120 59 47 47 43 221 224 209 204 208 217 220 221 223 220 218 229 247 241 246 262 269 253 233 232 271 295 284 272 260 249 234
247 249 249 256 270 275 2 349 323 310 321 11 265 271 310 91 143 168 153 68 64 61 80 226 224 230 217 207 202 215 217 216 213 215 226 220 227 250 266 267 242 248 276 308 301 281 265 257 251
228 243 250 248 257 269 333 331 338 289 280 260 246 276 336 107 187 213 227 227 223 203 212 281 247 231 232 228 198 204 207 211 217 213 204 214 234 234 222 241 267 285 291 302 309 304 278 259 239
222 245 258 268 273 299 312 313 315 294 282 279 269 253 232 227 224 232 244 255 263 285 325 313 292 255 238 233 223 218 210 203 218 227 214 225 235 241 253 233 241 266 273 271 266 281 280 247 233
231 253 287 271 273 285 293 301 296 289 292 298 303 307 267 237 237 239 243 254 281 310 320 322 314 274 238 217 233 228 217 214 222 230 231 235 240 240 240 243 222 234 235 248 238 240 242 239 236
245 256 262 277 283 282 291 296 291 278 282 307 309 304 287 254 242 236 236 239 231 237 284 341 338 267 212 210 207 222 218 214 220 218 228 230 234 244 247 251 254 252 241 242 251 250 243 245 241
246 273 271 271 282 283 285 280 286 276 294 313 307 296 287 273 251 235 236 228 226 221 197 82 69 103 133 170 193 217 224 228 225 228 230 236 241 245 240 244 243 249 249 244 243 239 235 236 235
282 273 284 291 288 265 275 284 268 279 332 326 329 324 313 291 260 235 224 226 225 221 210 199 153 129 136 154 174 190 219 229 246 237 237 240 248 249 246 245 238 242 242 247 245 244 245 234 205
278 281 282 247 308 338 293 280 256 335 335 323 327 329 327 309 278 254 241 238 234 227 229 230 223 202 171 159 164 190 210 232 241 244 242 234 237 241 236 237 232 230 232 235 235 244 247 242 207
254 258 265 120 1 16 314 306 331 350 339 341 353 2 4 0 329 287 266 257 249 239 235 232 231 231 219 204 196 200 217 223 229 239 241 234 229 231 234 238 237 231 229 220 212 206 200 203 205
238 284 311 329 50 349 327 305 333 360 9 30 37 37 35 30 20 357 305 268 254 245 239 233 229 230 223 216 214 214 214 218 222 230 241 234 226 222 229 242 248 235 234 231 215 205 202 195 196
327 317 312 312 337 328 309 305 350 31 51 49 41 35 32 30 24 15 356 315 275 257 248 242 232 230 218 211 210 202 207 210 214 213 216 216 208 209 222 229 234 235 230 234 220 204 206 203 203
312 297 299 306 337 315 307 313 10 60 48 44 37 32 28 25 22 19 11 352 309 269 252 247 243 232 224 217 216 209 203 198 194 189 195 205 201 200 210 212 199 213 205 191 184 181 181 172 202
291 293 303 316 327 311 308 306 93 76 57 47 36 28 23 17 15 13 10 6 342 298 267 252 247 241 233 231 228 225 202 196 173 163 157 164 165 164 191 209 201 201 195 187 181 181 175 167 193
301 306 323 316 320 279 290 226 144 101 59 42 32 25 23 18 12 7 4 4 357 332 288 262 253 249 240 230 218 202 193 194 193 190 179 172 173 163 172 194 199 200 203 195 190 195 197 183 178
317 340 309 306 308 292 312 263 173 134 52 30 22 20 20 16 11 7 5 3 357 345 317 284 270 259 246 233 226 218 217 213 211 203 192 189 196 188 177 191 205 205 206 199 196 205 210 198 194
315 311 296 293 279 270 220 242 189 80 28 16 15 16 17 13 8 6 6 1 358 354 339 310 291 276 259 248 243 237 233 228 213 207 210 210 198 200 193 197 210 220 219 211 211 210 214 217 211
312 298 272 222 240 245 186 255 242 59 22 6 11 14 12 8 4 1 360 357 358 359 352 335 313 294 278 266 254 243 235 223 214 215 218 213 197 191 185 197 209 221 227 225 228 227 226 230 231
349 335 318 298 266 289 108 274 286 104 29 14 9 6 3 360 358 355 355 355 355 353 350 344 332 314 296 281 267 253 242 232 226 222 222 218 204 195 186 222 240 240 241 246 245 242 238 237 238
355 352 348 317 306 306 286 269 116 122 34 21 8 356 353 354 352 349 348 348 346 343 343 343 337 324 307 287 271 263 250 242 235 224 219 212 207 186 151 282 285 283 278 268 256 253 247 245 242
353 43 327 280 281 279 269 250 139 204 0 2 357 355 353 349 343 340 338 336 335 333 335 336 334 327 315 297 277 266 260 249 240 218 198 169 144 127 38 324 307 298 292 286 278 263 258 258 255
21 325 278 271 293 293 295 288 265 75 2 357 351 346 341 336 334 332 330 329 329 328 329 331 330 325 312 296 278 267 262 251 227 200 171 148 136 118 35 336 314 301 293 287 281 277 272 267 262
318 258 280 277 275 287 295 313 72 25 354 345 340 337 333 330 329 327 325 326 324 325 328 329 328 326 317 296 266 244 238 228 210 187 151 133 114 83 45 338 311 302 297 290 280 273 274 271 270
309 17 324 300 291 274 283 296 80 350 344 339 332 330 328 324 322 323 323 323 321 326 328 327 329 329 325 312 276 225 206 200 198 167 129 114 107 90 58 341 314 314 308 298 286 279 275 273 275